W5DNT Weather Reports


time (UTC)temp
F
wind
direction
speed
knots
gust
knots
rain 1hr
in
rain 24hr
in
rain mn
in
humidity
%
barometer
mb
20260509213051 87 288 0.0 0.0 0.00 0.00 0.00 60 1007.7
20260509211553 87 136 0.0 0.0 0.00 0.00 0.00 55 1007.9
20260509211519 87 136 0.0 0.0 0.00 0.00 0.00 55 1008.0
20260509210053 87 130 0.0 0.0 0.00 0.00 0.00 59 1008.2
20260509204550 86 98 0.0 0.9 0.00 0.00 0.00 58 1008.5
20260509203045 86 124 0.0 1.7 0.00 0.00 0.00 61 1008.6
20260509201550 86 79 0.0 0.9 0.00 0.00 0.00 61 1008.8
20260509200051 85 221 0.0 0.0 0.00 0.00 0.00 65 1009.1
20260509194539 84 94 0.0 0.0 0.00 0.00 0.00 64 1009.4
20260509193037 84 105 0.0 2.6 0.00 0.00 0.00 60 1009.7
20260509191535 83 55 0.0 0.0 0.00 0.00 0.00 71 1009.8
20260509190033 83 117 0.0 0.0 0.00 0.00 0.00 65 1009.9
20260509184532 82 115 0.0 0.0 0.00 0.00 0.00 69 1010.2
20260509183030 82 82 0.0 0.9 0.00 0.00 0.00 69 1010.3
20260509181527 82 117 0.0 0.0 0.00 0.00 0.00 71 1010.5
20260509180024 81 36 0.0 0.0 0.00 0.00 0.00 78 1010.8
20260509174521 80 286 0.0 0.0 0.00 0.00 0.00 78 1010.9
20260509173019 79 320 0.0 0.0 0.00 0.00 0.00 79 1011.1
20260509171525 79 305 0.0 0.0 0.00 0.00 0.00 80 1011.2
20260509170024 77 355 0.0 0.0 0.00 0.00 0.00 80 1011.3
20260509164511 77 279 0.0 0.9 0.00 0.00 0.00 80 1011.4
20260509163008 76 302 0.0 0.9 0.00 0.00 0.00 81 1011.5
20260509161505 76 298 0.0 0.9 0.00 0.00 0.00 81 1011.6
20260509154559 74 355 0.0 2.6 0.00 0.00 0.00 82 1011.5
20260509153057 73 329 0.0 2.6 0.00 0.00 0.00 82 1011.3
20260509151550 73 342 2.6 7.8 0.00 0.00 0.00 82 1011.2
20260509150050 72 334 2.6 8.7 0.00 0.00 0.00 83 1011.1
20260509144543 71 342 4.3 10.4 0.00 0.00 0.00 83 1011.1
20260509143040 70 325 4.3 13.0 0.00 0.00 0.00 83 1011.1
20260509141541 70 317 1.7 7.8 0.00 0.00 0.00 83 1011.1
20260509140041 70 312 0.0 0.0 0.00 0.00 0.00 84 1011.1
20260509134548 69 320 0.0 0.9 0.00 0.00 0.00 84 1011.0
20260509133034 68 15 0.0 0.9 0.00 0.00 0.00 84 1010.9
20260509131546 67 302 0.0 0.0 0.00 0.00 0.00 85 1010.6
20260509130038 66 279 0.0 0.0 0.00 0.00 0.00 85 1010.4
20260509124532 65 279 0.0 0.9 0.00 0.00 0.00 85 1010.2
20260509123031 65 290 0.0 0.0 0.00 0.00 0.00 84 1009.9
20260509121530 65 265 0.0 3.5 0.00 0.00 0.00 84 1009.5
20260509120029 66 200 0.0 0.0 0.00 0.00 0.00 84 1009.1
20260509114531 66 184 0.0 0.9 0.00 0.00 0.00 84 1008.3
20260509113028 65 136 0.0 8.7 0.00 0.00 0.00 83 1008.3
20260509111528 65 193 0.0 8.7 0.00 0.00 0.00 87 1007.6
20260509110025 65 176 0.0 4.3 0.00 0.00 0.00 88 1007.8
20260509104524 66 127 0.0 1.7 0.00 0.00 0.00 88 1010.0
20260509103023 67 169 0.0 1.7 0.00 0.00 0.00 87 1011.2
20260509101533 67 194 0.0 0.9 0.00 0.00 0.00 87 1011.5
20260509100024 67 313 0.0 0.9 0.00 0.00 0.00 86 1011.7
20260509094522 67 161 0.0 0.9 0.00 0.00 0.00 87 1010.9
20260509093021 68 227 0.0 0.0 0.00 0.00 0.00 87 1011.5
20260509091521 68 138 0.0 1.7 0.00 0.00 0.00 87 1011.7
20260509090017 67 327 1.7 4.3 0.00 0.00 0.00 85 1012.0
20260509084517 67 360 2.6 7.0 0.00 0.00 0.00 85 1011.9
20260509083018 66 331 0.0 4.3 0.00 0.00 0.00 85 1011.8
20260509081510 65 329 0.0 0.0 0.00 0.00 0.00 85 1011.3
20260509080009 65 329 0.0 0.0 0.00 0.00 0.00 85 1011.3
20260509074508 64 329 0.0 0.0 0.00 0.00 0.00 85 1011.7
20260509073009 64 115 0.0 0.0 0.00 0.00 0.00 85 1011.2
20260509071506 63 115 0.0 0.0 0.00 0.00 0.00 85 1011.0
20260509070005 64 115 0.0 0.0 0.00 0.00 0.00 85 1011.4
20260509064503 64 115 0.0 0.0 0.00 0.00 0.00 85 1011.0
20260509063100 65 115 0.0 0.0 0.00 0.00 0.00 86 1010.8
20260509061624 65 115 0.0 0.0 0.00 0.00 0.00 85 1010.5
20260509054557 65 115 0.0 0.0 0.00 0.00 0.00 84 1010.4
20260509053055 65 115 0.0 0.0 0.00 0.00 0.00 85 1010.7
20260509051553 65 115 0.0 0.0 0.00 0.00 0.00 84 1010.6
20260509050052 65 115 0.0 0.0 0.00 0.00 0.00 84 1010.6
20260509044550 66 115 0.0 0.0 0.00 0.00 0.00 84 1010.8
20260509043056 66 115 0.0 0.0 0.00 0.00 0.00 84 1010.7
20260509041549 66 115 0.0 0.0 0.00 0.00 0.00 84 1010.6
20260509040148 66 115 0.0 0.0 0.00 0.00 0.00 84 1010.6
20260509034552 67 115 0.0 0.0 0.00 0.00 0.00 84 1010.3
20260509033052 66 115 0.0 0.0 0.00 0.00 0.00 84 1010.1
20260509031546 67 115 0.0 0.0 0.00 0.00 0.00 84 1009.9
20260509030046 67 115 0.0 0.0 0.00 0.00 0.00 84 1009.7
20260509024546 67 115 0.0 0.0 0.00 0.00 0.00 84 1009.6
20260509023044 68 115 0.0 0.0 0.00 0.00 0.00 84 1009.3
20260509021544 68 115 0.0 0.0 0.00 0.00 0.00 84 1009.2
20260509020044 69 115 0.0 0.0 0.00 0.00 0.00 84 1008.9
20260509014543 69 115 0.0 0.0 0.00 0.00 0.00 84 1008.8
20260509013052 69 114 0.0 0.0 0.00 0.00 0.00 84 1008.7
20260509011542 70 119 0.0 0.0 0.00 0.00 0.00 84 1008.7
20260509010041 71 117 0.0 0.0 0.00 0.00 0.00 83 1008.7
20260509004541 71 140 0.0 0.0 0.00 0.00 0.00 83 1008.7
20260509003039 72 130 0.0 0.0 0.00 0.00 0.00 83 1008.8
20260509001548 72 113 0.0 0.0 0.00 0.00 0.00 83 1008.8
20260509000041 72 114 0.0 0.0 0.00 0.00 0.00 82 1008.9
20260508234542 72 119 0.0 0.0 0.00 0.00 0.00 82 1008.9
20260508233038 72 133 0.0 0.0 0.00 0.00 0.00 81 1008.9
20260508231537 73 119 0.0 0.9 0.00 0.00 0.00 81 1008.8
20260508230038 73 116 0.0 0.0 0.00 0.00 0.00 81 1008.9
20260508224546 73 150 0.0 0.9 0.00 0.00 0.00 80 1008.9
20260508223045 74 103 0.0 0.9 0.00 0.00 0.00 79 1008.8
20260508221535 74 165 0.0 8.7 0.00 0.00 0.00 80 1009.0
20260508220031 74 105 0.0 0.0 0.00 0.00 0.00 81 1009.1
20260508214548 72 190 0.0 0.0 0.00 0.00 0.00 81 1009.2